User: anonymous   Login
Location: Unspecified
(0.0000°N, 0.0000°E)
Time: 22:43:10
(UTC+00:00)
Language:

NOAA 6 - Orbit

View from above orbital plane
View from above orbital plane
View from above satellite
View from above satellite

Ground track
Ground track

The orbit data is extracted from the following two-line orbital elements,

1 11416U 79057A   18174.94778645 +.00000031 +00000-0 +27412-4 0  9996
2 11416 098.6106 165.2883 0009398 225.6739 134.3676 14.33484231033123
Epoch (UTC): 23 June 2018 22:44:48
Eccentricity: 0.0009398
inclination: 98.6106°
perigee height: 773 km
apogee height: 787 km
right ascension of ascending node: 165.2883°
argument of perigee: 225.6739°
revolutions per day: 14.33484231
mean anomaly at epoch: 134.3676°
orbit number at epoch: 3312

The dashed part of the orbit path shows where the satellite is in the earth's shadow,  

DLR